www.pogodaiklimat.ru

Погода и климат >> Архив погоды >> Россия >> Коми >> Ижма


ПОГОДА в Ижме

  • Прогноз погоды в Ижме
  • Монитор погоды в Ижме

АРХИВ ПОГОДЫ в Ижме

Время (UTC), дата Ветер
(напр.,м/с)
 
Видим.   Явления Облачность Т
(С)
Тd
(С)
f
(%)
Тe
(С)
Тes
(С)
Комфортность P
(гПа)
Po
(гПа)
Тmin
(С)
Tmax
(С)
R
(мм)
R24
(мм)
S
(см)
15 15.09 Ю 6-12
{13}
20 км слаб. ливневой дождь 10/10 720 м
[Cb cap]
+9.3 +8.1 92 +5 +5 991.0 986.2 +11.0 0.3
18 15.09 Ю 5
{13}
20 км слаб. ливневой дождь 10/10 480 м
[Cb cap]
+7.1 +5.5 90 +3 +3 989.4 984.7
21 15.09 Ю 5
{12}
20 км слаб. ливневой дождь 10/10 540 м
[Cb cap]
+6.6 +5.2 91 +2 +2 988.1 983.4
00 16.09 Ю 4 20 км {ливн. осадки} 10/10 420 м
[Cb cap]
+6.2 +4.8 91 +2 +2 987.2 982.4
03 16.09 Ю 4 20 км слаб. ливневой дождь 10/10 450 м
[Cb cap]
+5.4 +4.9 97 +1 +1 987.2 982.4 +5.0 4
06 16.09 Ю 4 20 км слаб. ливневой дождь 10/10 500 м
[Cb cap]
+5.4 +4.5 94 +1 +1 987.8 983.0
09 16.09 Ю 5
{10}
20 км в посл. час ливневой дождь 10/10 700 м
[Cb cap]
+7.2 +5.9 91 +3 +3 988.9 984.2
12 16.09 Ю 3 20 км 9/9 570 м
[Cb cap]
+11.1 +1.9 53 +10 +10 991.1 983.7
15 16.09 Ю 1 20 км слаб. ливневой дождь 10/8 900 м
[Cb cap Ac und]
+7.0 +5.1 88 +6 +6 990.4 985.6 +10.9 4
18 16.09 ЮВ 1 20 км {ливн. осадки} 10/6 600 м
[Cb cap Ac und]
+6.9 +4.4 84 +6 +6 990.6 985.8
21 16.09 ЮВ 2 20 км 9/3 1000 м
[Sc Ac trans Ci fib]
+6.3 +4.2 86 +4 +4 989.3 984.5
00 17.09 В 2 20 км слаб. дождь 10/6 1080 м
[Sc Ac As]
+5.5 +4.3 92 +3 +3 988.7 983.9
03 17.09 ЮВ 1 20 км слаб. дождь 10/8 960 м
[Sc As op]
+5.5 +4.8 95 +4 +4 988.3 983.5 +5.1 0.7
06 17.09 ЮВ 2 20 км слаб. дождь 10/10 210 м
[Frnb]
+7.0 +6.5 97 +5 +5 988.0 983.3
09 17.09 ЮВ 2 20 км слаб. дождь 10/8 240 м
[Frnb As op]
+9.0 +8.0 93 +7 +7 988.2 983.5
12 17.09 ЮВ 2 20 км {дождь} 10/4 300 м
[Cb cap Ac trans Ci fib]
+10.5 +7.4 81 +9 +10 988.5 983.8
15 17.09 ЮВ 2 20 км 10/3 600 м
[Cb cap Ac und]
+9.0 +8.0 93 +7 +7 988.9 984.2 +11.4 1
18 17.09 Ю 1 20 км 10/0
[Ac und]
+7.2 +6.4 95 +6 +6 989.4 984.7
21 17.09 штиль 0 20 км 10/0
[Ac und]
+6.8 +5.9 94 +6 +6 989.1 984.4
00 18.09 штиль 0 4000 м дымка 10/10 210 м
[St]
+7.0 +6.4 96 +6 +6 990.0 985.2
03 18.09 штиль 0 20 км 10/10 330 м
[St]
+6.8 +6.1 95 +6 +6 990.4 985.6 +5.5
06 18.09 СЗ 2 20 км слаб. морось 10/10 150 м
[St]
+7.0 +6.4 96 +5 +5 991.5 986.7
09 18.09 СЗ 3 20 км слаб. дождь {морось} 10/8 300 м
[Frnb As op]
+6.4 +4.6 88 +3 +3 993.4 988.5
12 18.09 С 3 20 км {дождь, морось} 10/10 480 м
[Sc]
+5.8 +3.7 86 +2 +2 995.5 990.6
15 18.09 штиль 0 20 км 9/0
[Ac trans]
+5.2 +3.3 88 +4 +4 996.7 991.8 +8.0 0.0
18 18.09 З 2 20 км 10/0
[Ac und]
+4.1 +2.3 88 +1 +1 997.3 992.4
21 18.09 штиль 0 20 км 10/4 600 м
[Sc Ac und]
+3.5 +1.7 88 +2 +2 997.7 992.8
00 19.09 З 1 20 км 10/0
[Ac trans Ci fib]
+1.0 -0.4 90 -1 -1 998.4 993.5
03 19.09 штиль 0 20 км 10/0
[Ac trans Ci fib]
-3.3 -4.4 92 -4 -4 998.9 993.9 -3.4
06 19.09 штиль 0 20 км 10/10 150 м
[St]
+1.4 +0.3 92 0 0 999.3 994.4
09 19.09 СЗ 2 20 км 10/4 300 м
[Cb cap Ac trans Ci]
+5.8 +2.1 77 +3 +5 999.9 995.0
12 19.09 СЗ 2 20 км {ливн. осадки} 10/3 300 м
[Cb cap Ci]
+5.3 +1.5 76 +3 +4 1000.2 995.3
15 19.09 штиль 0 20 км 3/0
[Ac trans]
+2.4 +1.1 91 +1 +1 1000.8 995.9 +7.3 0.0
18 19.09 штиль 0 20 км ясно -2.3 -3.3 93 -4 -4 1001.0 996.0
21 19.09 СЗ 2 20 км 1/0
[Ac trans]
-0.9 -1.6 95 -5 -5 1001.3 996.3
00 20.09 штиль 0 20 км 9/9 600 м
[Sc]
-2.7 -3.4 95 -4 -4 1002.1 997.1
03 20.09 СЗ 1 20 км 10/10 150 м
[St]
+1.1 +0.6 96 -1 -1 1002.6 997.6 -4.0
06 20.09 З 3 20 км {снег} 10/10 240 м
[St]
+2.9 +1.3 89 -1 -1 1002.9 998.0
09 20.09 З 3 20 км в посл. час ливневой снег 9/9 800 м
[Cb cap]
+4.6 +0.4 74 +1 +2 1003.7 998.8
12 20.09 ЮЗ 2 20 км 8/8 960 м
[Cb cap Ac trans]
+6.4 +0.2 65 +4 +5 1004.4 999.5
15 20.09 штиль 0 20 км {ливн. осадки} 10/4 1000 м
[Cb cap Ac trans Ci fib]
+3.1 +0.7 84 +2 +2 1004.9 1000.0 +7.6 0.4
18 20.09 Ю 2 20 км {ливн. осадки} 6/3 1000 м
[Sc Ac trans]
-0.3 -0.9 96 -4 -4 1005.1 1000.1
21 20.09 ЮЗ 1 20 км 8/8 1110 м
[Sc]
-1.3 -2.1 94 -4 -4 1004.8 999.8
00 21.09 ЮВ 1 20 км 9/6 720 м
[Sc Ci fib]
-2.6 -3.6 93 -5 -5 1004.5 999.5
03 21.09 Ю 2 20 км 10/8 240 м
[St Ci fib]
-0.3 -1.2 94 -4 -4 1004.1 999.1 -2.7
06 21.09 Ю 4 20 км 10/10 240 м
[Frnb]
+1.4 0.0 90 -4 -4 1003.2 998.2
09 21.09 ЮВ 3 20 км 10/9 480 м
[Sc]
+3.5 -0.3 76 -0 -0 1002.8 997.9
12 21.09 ЮВ 3 20 км 10/8 630 м
[Sc Ci fib]
+4.4 -0.4 71 +1 +1 1002.5 997.6
15 21.09 В 2 20 км 3/3 600 м
[Sc]
+1.5 -0.5 87 -2 -2 1001.4 996.4 +5.1
18 21.09 ЮВ 1 20 км 4/0
[Ac trans]
+0.7 -0.1 94 -1 -1 1000.8 995.8
21 21.09 ЮВ 1 20 км {снег} 10/0
[Ac As]
-0.6 -1.2 96 -3 -3 1000.2 995.2
00 22.09 В 1 10 км слаб. снег 10/8 330 м
[Frnb As op]
-0.3 -0.6 98 -3 -3 999.6 994.7
03 22.09 В 1 20 км слаб. снег 10/8 300 м
[Frnb As op]
-0.1 -0.7 96 -2 -2 999.4 994.5 -2.3 0.3
06 22.09 В 2 20 км {снег} 10/8 660 м
[Cb cap Ac und]
+2.1 -0.1 85 -1 -1 999.5 994.6
09 22.09 СВ 2 20 км 10/8 660 м
[Cb cap Ac und]
+3.0 -2.1 69 0 +1 999.3 994.4
12 22.09 СВ 2 20 км 9/8 720 м
[Cb cap Cc]
+3.8 -2.5 63 +1 +2 999.3 994.4

 

Местоположение метеостанции Ижма (Коми, Россия): широта 65.00 долгота 53.92 высота над уровнем моря 40 м.

В архиве по умолчанию представлена погода в Ижме за последнюю неделю. Архивные данные за месяц целиком и за предыдущие месяцы, начиная с января 2011 года, Вы можете получить, выбрав интересующий диапазон дат из раскрывающегося списка и нажав кнопку "Ввод!".


*Определитесь, кто Вы:
робот инопланетянин человек

Внимание! Время в таблицах - всемирное. Для получения местного времени необходимо прибавить поправку, которая равна 3 ч.

Смотрите также архив погоды в соседних городах и на ближайших метеорологических станциях:

Погода в Ираеле (Коми, Россия) (88 км)
Погода в Кедва-Воме (Коми, Россия) (88 км)
Погода в Усть-Цильме (Коми, Россия) (91 км)
Погода в Мутном Материке (Коми, Россия) (120 км)
Погода в Печоре (Коми, Россия) (150 км)
Погода в Окуневом Носу (Коми, Россия) (152 км)
Погода в Ухте (Коми, Россия) (161 км)
Погода в Усть-Усе (Коми, Россия) (175 км)
Погода в Усть-Щугоре (Коми, Россия) (194 км)
Погода в Усинске (Коми, Россия) (196 км)

Пояснения к столбцам:

Ветер - указаны скорость ветра в м/с - средняя за 10 мин, порывы в срок и между сроками (в фигурных скобках) и направление, откуда дует ветер: С - северный, СВ - северо-восточный, В - восточный, ЮВ - юго-восточный, Ю - южный, ЮЗ - юго-западный, З - западный, СЗ - северо-западный.
Видимость - горизонтальная дальность видимости в метрах или километрах. При видимости от 1 до 10 км при отсутствии осадков обычно наблюдается дымка, при ухудшении видимости до 1 км и менее - туман. В сухую погоду видимость может ухудшаться дымом, пылью или мглою.
Явления - указаны атмосферные явления, наблюдавшиеся в срок или в последний час перед сроком; фигурными скобками обозначены явления, наблюдавшиеся между сроками (за 1-3 часа до срока); квадратными скобками обозначены град или гололедные отложения с указанием их диаметра в мм.
Облачность - указаны через наклонную черту общая и нижняя облачность в баллах и высота нижней границы облаков в метрах; квадратными скобками обозначены формы облаков: Ci - перистые, Cs - перисто-слоистые, Cc - перисто-кучевые, Ac - высококучевые, As - высокослоистые, Sc - слоисто-кучевые, Ns - слоисто-дождевые, Cu - кучевые, Cb - кучево-дождевые. Подробнее классификацию облаков см. в Атласе облаков (PDF).
T - Температура воздуха - температура, измеренная на высоте 2 м над землей.
Td - Температура точки росы - температура, при понижении до которой содержащийся в воздухе водяной пар достигнет насыщения.
f - Относительная влажность воздуха - влажноcть воздуха, измеренная на высоте 2 м над землей.
Te - Эффективная температура - температура, которую ощущает одетый по сезону человек в тени. Характеристика душности погоды. При расчете учитывается влияние влажности воздуха и скорости ветра на теплоощущения человека.
Tes - Эффективная температура на солнце - температура, которую ощущает человек, с поправкой на солнечный нагрев. Характеристика знойности погоды. Зависит от высоты солнца над горизонтом, облачности и скорости ветра. Ночью, в пасмурную погоду, а также при ветре 12 м/с и более поправка равна нулю.
P - Атмосферное давление - приведенное к уровню моря атмосферное давление.
Po - Атмосферное давление - измеренное на уровне метеостанции атмосферное давление.
Tmin - Минимальная температура - минимум температуры воздуха на высоте 2 м над землей.
Tmax - Максимальная температура - максимум температуры воздуха на высоте 2 м над землей.
R - Количество осадков - Количество выпавших осадков за период времени, мм. При наведении курсора мыши на число - период времени, за который выпало указанное количество осадков.
R24 - Количество осадков - Количество выпавших осадков за 24 часа, мм.
S - Снежный покров - Высота снежного покрова, см. При наведении курсора мыши на число - состояние снежного покрова и степень покрытия местности в баллах.